Home > Weather > Springe > Past weeks

Flag for Germany Past Weather in Springe, Lower Saxony, Germany — Yesterday and Last 2 Weeks

Now
68 °F

Mild.


Feels Like: 68 °F
Forecast: 56 / 69 °F
Wind: 5 mph from West

Location: Wunstorf Airport

Current Time: Jul 30, 2016 at 10:45:59 PM

Latest Report: Jul 30, 2016 at 9:20 PM


Visibility: N/A

Pressure: 29.89 "Hg

Humidity: 69%

Dew Point: 57 °F

Location of SpringeLocation

Past Weather in Springe — Graph

°F

Springe Temperature Yesterday

Maximum temperature yesterday: 73 °F (at 2:20 PM)
Minimum temperature yesterday: 63 °F (at 12:20 AM)
Average temperature yesterday: 67 °F

High & Low Weather Summary for the Past Weeks

 TemperatureHumidityPressure
High88 °F (Jul 20, 3:20 PM)94% (Jul 17, 12:20 AM)30.24 "Hg (Jul 17, 12:20 AM)
Low52 °F (Jul 16, 3:20 AM)27% (Jul 24, 3:20 PM)29.83 "Hg (Jul 29, 5:20 PM)
Average70 °F69%30.04 "Hg
* Reported Jul 15 9:20 PM — Jul 30 9:20 PM, Springe, Weather by CustomWeather, © 2016

Note: Actual official high and low records may vary slightly from our data, if they occured in-between our weather recording intervals... More about our weather records

Advertising

Springe Weather History for the Previous 24 Hours

Scroll right to see more
 ConditionsComfort  
Time TempWeatherWind HumidityBarometerVisibility
9:20 PM
Sat, Jul 30
68 °FMild.5 mph69%29.89 "HgN/A
8:20 PM70 °FMild.6 mph60%29.89 "HgN/A
7:20 PM70 °FMild.8 mph64%29.89 "HgN/A
6:20 PM70 °FMild.9 mph69%29.89 "HgN/A
5:20 PM73 °FMild.9 mph57%29.89 "Hg2 mi
4:20 PM72 °FMild.15 mph57%29.89 "HgN/A
3:20 PM72 °FMild.15 mph57%29.89 "HgN/A
2:20 PM72 °FMild.14 mph57%29.89 "Hg6 mi
1:20 PM72 °FMild.13 mph53%29.86 "HgN/A
12:20 PM70 °FMild.14 mph57%29.86 "HgN/A
11:20 AM68 °FMild.16 mph60%29.86 "HgN/A
10:20 AM68 °FMild.13 mph64%29.86 "HgN/A
9:20 AM68 °FMild.13 mph64%29.86 "HgN/A
8:20 AM66 °FMild.7 mph73%29.86 "HgN/A
7:20 AM63 °FMild.6 mph83%29.86 "HgN/A
6:20 AM61 °FCool.7 mph88%29.86 "Hg5 mi
5:20 AM63 °FMild.7 mph83%29.86 "Hg5 mi
4:20 AM61 °FCool.7 mph88%29.86 "Hg5 mi
3:20 AM63 °FMild.7 mph83%29.86 "Hg5 mi
2:20 AM64 °FMild.6 mph78%29.86 "Hg6 mi
1:20 AM66 °FMild.7 mph73%29.86 "Hg6 mi
12:20 AM68 °FMild.8 mph69%29.86 "Hg6 mi
11:20 PM
Fri, Jul 29
68 °FMild.6 mph69%29.86 "Hg6 mi
10:20 PM68 °FMild.6 mph69%29.86 "Hg5 mi
Weather by CustomWeather, © 2016

See weather overviewHow to use our weather pages